This is the latest recevied weather packets stored in our database for station/object DG5TS-10. If no packets are shown the sender has not sent any weather packets the latest 10 day(s).
| Time | Temp. | Humidity | Pressure | Rain* | Wind** | Luminosity | Snow |
|---|---|---|---|---|---|---|---|
| 1777836325 | 22.78° C | 25% | 1011.7 hPa | - | - | - | - |
| 1777835425 | 23.33° C | 24% | 1011.6 hPa | - | - | - | - |
| 1777834525 | 23.33° C | 24% | 1011.4 hPa | - | - | - | - |
| 1777833625 | 23.89° C | 23% | 1011.3 hPa | - | - | - | - |
| 1777832724 | 24.44° C | 23% | 1011.2 hPa | - | - | - | - |
| 1777831824 | 24.44° C | 22% | 1011 hPa | - | - | - | - |
| 1777830923 | 25° C | 21% | 1010.9 hPa | - | - | - | - |
| 1777830023 | 25.56° C | 21% | 1010.9 hPa | - | - | - | - |
| 1777829123 | 25.56° C | 20% | 1010.7 hPa | - | - | - | - |
| 1777828222 | 26.11° C | 20% | 1010.8 hPa | - | - | - | - |
| 1777827322 | 26.11° C | 20% | 1010.9 hPa | - | - | - | - |
| 1777826422 | 26.67° C | 19% | 1011.1 hPa | - | - | - | - |
| 1777825522 | 26.67° C | 18% | 1011.1 hPa | - | - | - | - |
| 1777824621 | 27.78° C | 17% | 1011.1 hPa | - | - | - | - |
| 1777823721 | 26.67° C | 17% | 1011.2 hPa | - | - | - | - |
| 1777822821 | 26.67° C | 16% | 1011.2 hPa | - | - | - | - |
| 1777821921 | 27.22° C | 16% | 1011.3 hPa | - | - | - | - |
| 1777821021 | 27.78° C | 14% | 1011.3 hPa | - | - | - | - |
| 1777820121 | 27.22° C | 14% | 1011.4 hPa | - | - | - | - |
| 1777819221 | 27.22° C | 14% | 1011.6 hPa | - | - | - | - |
| 1777818321 | 27.22° C | 14% | 1011.5 hPa | - | - | - | - |
| 1777817420 | 27.22° C | 15% | 1011.6 hPa | - | - | - | - |
| 1777816520 | 28.33° C | 14% | 1011.8 hPa | - | - | - | - |
| 1777815620 | 27.78° C | 15% | 1011.8 hPa | - | - | - | - |
| 1777814720 | 27.78° C | 15% | 1012.1 hPa | - | - | - | - |
* Rain since midnight (hover to see other rain measurements)
** Current wind speed in m/s (hover to see current wind gust speed)